Hourly Data Report for October 26, 2014

All times are specified in Local Standard Time (LST). Add 1 hour to adjust for Daylight Saving Time where and when it is observed.

CHARLOTTETOWN A
PRINCE EDWARD ISLAND

46°17'21.000" N
63°07'09.000" W
48.50 m
8300301
71706
YYG

Download Data

Hourly Data (October 2014)
Hourly Data Report for October 26, 2014
Temp Definition
°C
Dew Point Temp Definition
°C
Rel Hum Definition
%
Wind Dir Definition
10's deg

Wind Spd Definition
km/h
Visibility Definition
km
Stn Press Definition
kPa
Hmdx Definition


Wind Chill Definition


Weather Definition


TIME
00:00 Legend Double Dagger 7.6 6.7 94 28 8 24.1 99.19     LegendNANA
01:00 Legend Double Dagger 7.3 6.4 94 25 8 24.1 99.18     LegendNANA
02:00 Legend Double Dagger 7.1 6.4 95 26 9 24.1 99.20     Cloudy
03:00 Legend Double Dagger 7.0 6.4 96 26 13 24.1 99.25     LegendNANA
04:00 Legend Double Dagger 6.8 6.4 97 25 9 9.7 99.25     Fog
05:00 Legend Double Dagger 6.8 6.5 98 23 8 4.8 99.27     Drizzle,Fog
06:00 Legend Double Dagger 6.1 5.7 97 22 11 6.4 99.24     Drizzle,Fog
07:00 Legend Double Dagger 5.9 5.5 97 22 5 24.1 99.24     LegendNANA
08:00 Legend Double Dagger 6.7 6.1 96 18 5 24.1 99.27     Mostly Cloudy
09:00 Legend Double Dagger 8.1 6.6 90 18 10 24.1 99.29     LegendNANA
10:00 Legend Double Dagger 8.9 7.0 88 15 21 24.1 99.23     LegendNANA
11:00 Legend Double Dagger 9.3 6.9 85 15 19 24.1 99.14     Mostly Cloudy
12:00 Legend Double Dagger 10.2 6.9 80 15 14 24.1 99.12     LegendNANA
13:00 Legend Double Dagger 9.9 6.8 81 12 15 24.1 99.03     LegendNANA
14:00 Legend Double Dagger 10.5 7.4 81 12 14 24.1 98.93     Mostly Cloudy
15:00 Legend Double Dagger 10.0 7.6 85 9 10 19.3 98.93     Rain Showers
16:00 Legend Double Dagger 9.3 7.8 90 8 12 19.3 98.89     Rain Showers
17:00 Legend Double Dagger 8.7 7.3 91 6 13 19.3 98.82     Rain Showers
18:00 Legend Double Dagger 8.9 8.3 96 5 15 19.3 98.76     Rain Showers
19:00 Legend Double Dagger 9.0 8.6 97 3 11 16.1 98.71     Rain Showers
20:00 Legend Double Dagger 9.5 9.1 97 31 10 8.1 98.67     Rain Showers,Fog
21:00 Legend Double Dagger 8.6 8.0 96 36 20 4.8 98.58     Heavy Rain Showers,Fog
22:00 Legend Double Dagger 8.9 8.3 96 36 22 8.1 98.48     Moderate Rain Showers,Fog
23:00 Legend Double Dagger 8.6 7.9 95 35 19 9.7 98.47     Moderate Rain Showers,Fog

Notes on Data Quality.

Legend

  • E = Estimated
  • M = Missing
  • NA = Not Available
  • ‡ = Partner data that is not subject to review by the National Climate Archives
Date modified: